Heubes-Wetterstation in 44289 Dortmund
Heubes-Wetterstation

Messwerte der letzten 60 Minuten im Minuten-Intervall (Wetterstation 44289 Dortmund)

Datum & Uhrzeit Temp. Feucht. Wind-Ø Böen Sekt.  Regen Rate Luftdruck
28.09.2020 - 10:3111.9 °C87%3 km/h 1 km/h SO0.0 mm 0.0 mm 1008.5 hPa, gleichbleibend
28.09.2020 - 10:3011.8 °C87%2 km/h 10 km/h S0.0 mm 0.0 mm 1008.5 hPa, langsam fallend
28.09.2020 - 10:2911.8 °C87%3 km/h 1 km/h S-SO0.0 mm 0.0 mm 1008.6 hPa, langsam steigend
28.09.2020 - 10:2811.8 °C86.8%3 km/h 8 km/h S-SW0.0 mm 0.0 mm 1008.5 hPa, langsam fallend
28.09.2020 - 10:2711.7 °C86%3 km/h 3 km/h S-SW0.0 mm 0.0 mm 1008.6 hPa, langsam steigend
28.09.2020 - 10:2611.7 °C86%3 km/h 7 km/h S-SO0.0 mm 0.0 mm 1008.5 hPa, gleichbleibend
28.09.2020 - 10:2511.7 °C86%3 km/h 7 km/h S-SO0.0 mm 0.0 mm 1008.5 hPa, gleichbleibend
28.09.2020 - 10:2411.7 °C87%3 km/h 11 km/h S0.0 mm 0.0 mm 1008.5 hPa, gleichbleibend
28.09.2020 - 10:2311.7 °C87%3 km/h 8 km/h S-SO0.0 mm 0.0 mm 1008.5 hPa, gleichbleibend
28.09.2020 - 10:2211.7 °C87%3 km/h 16 km/h S-SO0.0 mm 0.0 mm 1008.5 hPa, langsam steigend
28.09.2020 - 10:2111.7 °C87%3 km/h 7 km/h S-SW0.0 mm 0.0 mm 1008.4 hPa, gleichbleibend
28.09.2020 - 10:2011.7 °C87%3 km/h 1 km/h S0.0 mm 0.0 mm 1008.4 hPa, gleichbleibend
28.09.2020 - 10:1911.7 °C87%1 km/h 14 km/h SO0.0 mm 0.0 mm 1008.4 hPa, langsam steigend
28.09.2020 - 10:1811.7 °C87%1 km/h 14 km/h S0.0 mm 0.0 mm 1008.3 hPa, langsam fallend
28.09.2020 - 10:1711.7 °C87%1 km/h 10 km/h S0.0 mm 0.0 mm 1008.4 hPa, langsam steigend
28.09.2020 - 10:1611.7 °C87%1 km/h 7 km/h S-SW0.0 mm 0.0 mm 1008.3 hPa, gleichbleibend
28.09.2020 - 10:1511.7 °C88%1 km/h 5 km/h S-SO0.0 mm 0.0 mm 1008.3 hPa, gleichbleibend
28.09.2020 - 10:1411.6 °C87.5%1 km/h 5 km/h S-SW0.0 mm 0.0 mm 1008.3 hPa, langsam fallend
28.09.2020 - 10:1311.6 °C88%1 km/h 8 km/h S0.0 mm 0.0 mm 1008.4 hPa, langsam steigend
28.09.2020 - 10:1211.6 °C88%1 km/h 11 km/h S-SW0.0 mm 0.0 mm 1008.3 hPa, gleichbleibend
28.09.2020 - 10:1111.6 °C88%1 km/h 3 km/h S-SO0.0 mm 0.0 mm 1008.3 hPa, gleichbleibend
28.09.2020 - 10:1011.6 °C88%1 km/h 0 km/h S-SO0.0 mm 0.0 mm 1008.2 hPa, gleichbleibend
28.09.2020 - 10:0911.6 °C88%3 km/h 0 km/h S0.0 mm 0.0 mm 1008.3 hPa, gleichbleibend
28.09.2020 - 10:0811.6 °C88%3 km/h 7 km/h S0.0 mm 0.0 mm 1008.2 hPa, gleichbleibend
28.09.2020 - 10:0711.6 °C88%1 km/h 13 km/h SO0.0 mm 0.0 mm 1008.2 hPa, gleichbleibend
28.09.2020 - 10:0611.6 °C88%1 km/h 13 km/h S-SW0.0 mm 0.0 mm 1008.2 hPa, gleichbleibend
28.09.2020 - 10:0511.5 °C88%1 km/h 10 km/h S-SO0.0 mm 0.0 mm 1008.2 hPa, gleichbleibend
28.09.2020 - 10:0411.5 °C88%1 km/h 11 km/h S0.0 mm 0.0 mm 1008.2 hPa, gleichbleibend
28.09.2020 - 10:0311.5 °C88%1 km/h 5 km/h S0.0 mm 0.0 mm 1008.3 hPa, gleichbleibend
28.09.2020 - 10:0211.5 °C88%1 km/h 8 km/h S0.0 mm 0.0 mm 1008.2 hPa, gleichbleibend
28.09.2020 - 10:0111.4 °C88%1 km/h 7 km/h S0.0 mm 0.0 mm 1008.2 hPa, gleichbleibend
28.09.2020 - 10:0011.4 °C88%1 km/h 8 km/h S0.0 mm 0.0 mm 1008.2 hPa, gleichbleibend
28.09.2020 - 09:5911.4 °C88%1 km/h 8 km/h S-SO0.0 mm 0.0 mm 1008.2 hPa, gleichbleibend
28.09.2020 - 09:5811.4 °C88.5%1 km/h 1 km/h S0.0 mm 0.0 mm 1008.2 hPa, gleichbleibend
28.09.2020 - 09:5711.4 °C89%1 km/h 5 km/h S-SW0.0 mm 0.0 mm 1008.2 hPa, gleichbleibend
28.09.2020 - 09:5611.4 °C89%0 km/h 7 km/h S-SW0.0 mm 0.0 mm 1008.2 hPa, gleichbleibend
28.09.2020 - 09:5511.4 °C89%0 km/h 8 km/h S-SW0.0 mm 0.0 mm 1008.2 hPa, langsam steigend
28.09.2020 - 09:5411.3 °C88%0 km/h 3 km/h S-SO0.0 mm 0.0 mm 1008.1 hPa, gleichbleibend
28.09.2020 - 09:5311.3 °C88%0 km/h 0 km/h S-SW0.0 mm 0.0 mm 1008.1 hPa, langsam fallend
28.09.2020 - 09:5211.3 °C89%0 km/h 0 km/h S-SW0.0 mm 0.0 mm 1008.2 hPa, langsam steigend
28.09.2020 - 09:5111.3 °C89%0 km/h 5 km/h S-SW0.0 mm 0.0 mm 1008.1 hPa, gleichbleibend
28.09.2020 - 09:5011.2 °C89%0 km/h 1 km/h S0.0 mm 0.0 mm 1008.1 hPa, gleichbleibend
28.09.2020 - 09:4911.2 °C89%0 km/h 5 km/h S0.0 mm 0.0 mm 1008.1 hPa, gleichbleibend
28.09.2020 - 09:4811.2 °C89%0 km/h 3 km/h S-SO0.0 mm 0.0 mm 1008.1 hPa, langsam fallend
28.09.2020 - 09:4711.2 °C89%0 km/h 0 km/h S-SO0.0 mm 0.0 mm 1008.2 hPa, gleichbleibend
28.09.2020 - 09:4611.2 °C89%0 km/h 3 km/h S-SO0.0 mm 0.0 mm 1008.2 hPa, gleichbleibend
28.09.2020 - 09:4511.2 °C89%0 km/h 0 km/h S-SW0.0 mm 0.0 mm 1008.2 hPa, langsam steigend
28.09.2020 - 09:4411.1 °C89%0 km/h 0 km/h S-SW0.0 mm 0.0 mm 1008.1 hPa, langsam fallend
28.09.2020 - 09:4311.1 °C89%0 km/h 1 km/h S-SW0.0 mm 0.0 mm 1008.2 hPa, gleichbleibend
28.09.2020 - 09:4211.1 °C89%0 km/h 3 km/h S-SW0.0 mm 0.0 mm 1008.3 hPa, gleichbleibend
28.09.2020 - 09:4111.1 °C89%1 km/h 0 km/h S-SW0.0 mm 0.0 mm 1008.3 hPa, gleichbleibend
28.09.2020 - 09:4011.1 °C89%1 km/h 0 km/h S-SW0.0 mm 0.0 mm 1008.3 hPa, langsam fallend
28.09.2020 - 09:3911.1 °C89%1 km/h 0 km/h S-SW0.0 mm 0.0 mm 1008.4 hPa, gleichbleibend
28.09.2020 - 09:3811.0 °C89%1 km/h 0 km/h S-SW0.0 mm 0.0 mm 1008.4 hPa, gleichbleibend
28.09.2020 - 09:3711.0 °C89%1 km/h 0 km/h S-SW0.0 mm 0.0 mm 1008.4 hPa, gleichbleibend
28.09.2020 - 09:3610.9 °C89%1 km/h 0 km/h S-SW0.0 mm 0.0 mm 1008.4 hPa, langsam steigend
28.09.2020 - 09:3511.0 °C89%1 km/h 0 km/h S-SW0.0 mm 0.0 mm 1008.3 hPa, gleichbleibend
28.09.2020 - 09:3410.9 °C89%1 km/h 0 km/h S-SW0.0 mm 0.0 mm 1008.3 hPa, gleichbleibend
28.09.2020 - 09:3310.9 °C89%1 km/h 1 km/h S-SW0.0 mm 0.0 mm 1008.3 hPa, gleichbleibend
28.09.2020 - 09:3210.9 °C89%1 km/h 8 km/h S-SW0.0 mm 0.0 mm 1008.3 hPa, gleichbleibend